Year,Month,Day,Hour,Minute,Value (Times are PST for temperature in C)
2006,07,25,00,00,17.80
2006,07,25,00,01,17.80
2006,07,25,00,02,17.80
2006,07,25,00,03,17.80
2006,07,25,00,04,17.80
2006,07,25,00,05,17.80
2006,07,25,00,06,17.80
2006,07,25,00,07,17.80
2006,07,25,00,08,17.80
2006,07,25,00,09,17.80
2006,07,25,00,10,17.80
2006,07,25,00,11,17.80
2006,07,25,00,12,17.80
2006,07,25,00,13,17.80
2006,07,25,00,14,17.70
2006,07,25,00,15,17.70
2006,07,25,00,16,17.70
2006,07,25,00,17,17.70
2006,07,25,00,18,17.70
2006,07,25,00,19,17.60
2006,07,25,00,20,17.60
2006,07,25,00,21,17.60
2006,07,25,00,22,17.60
2006,07,25,00,23,17.50
2006,07,25,00,24,17.50
2006,07,25,00,25,17.50
2006,07,25,00,26,17.50
2006,07,25,00,27,17.50
2006,07,25,00,28,17.40
2006,07,25,00,29,17.40
2006,07,25,00,30,17.40
2006,07,25,00,31,17.40
2006,07,25,00,32,17.30
2006,07,25,00,33,17.30
2006,07,25,00,34,17.30
2006,07,25,00,35,17.30
2006,07,25,00,36,17.30
2006,07,25,00,37,17.30
2006,07,25,00,38,17.30
2006,07,25,00,39,17.30
2006,07,25,00,40,17.20
2006,07,25,00,41,17.20
2006,07,25,00,42,17.20
2006,07,25,00,43,17.20
2006,07,25,00,44,17.20
2006,07,25,00,45,17.10
2006,07,25,00,46,17.10
2006,07,25,00,47,17.10
2006,07,25,00,48,17.10
2006,07,25,00,49,17.00
2006,07,25,00,50,17.00
2006,07,25,00,51,17.00
2006,07,25,00,52,17.00
2006,07,25,00,53,17.00
2006,07,25,00,54,17.00
2006,07,25,00,55,17.00
2006,07,25,00,56,17.00
2006,07,25,00,57,16.90
2006,07,25,00,58,16.90
2006,07,25,00,59,16.90
2006,07,25,01,00,16.90
2006,07,25,01,01,16.90
2006,07,25,01,02,16.80
2006,07,25,01,03,16.80
2006,07,25,01,04,16.80
2006,07,25,01,05,16.80
2006,07,25,01,06,16.80
2006,07,25,01,07,16.70
2006,07,25,01,08,16.70
2006,07,25,01,09,16.70
2006,07,25,01,10,16.70
2006,07,25,01,11,16.70
2006,07,25,01,12,16.70
2006,07,25,01,13,16.70
2006,07,25,01,14,16.70
2006,07,25,01,15,16.70
2006,07,25,01,16,16.70
2006,07,25,01,17,16.70
2006,07,25,01,18,16.70
2006,07,25,01,19,16.70
2006,07,25,01,20,16.70
2006,07,25,01,21,16.70
2006,07,25,01,22,16.70
2006,07,25,01,23,16.70
2006,07,25,01,24,16.70
2006,07,25,01,25,16.70
2006,07,25,01,26,16.70
2006,07,25,01,27,16.70
2006,07,25,01,28,16.70
2006,07,25,01,29,16.70
2006,07,25,01,30,16.60
2006,07,25,01,31,16.60
2006,07,25,01,32,16.60
2006,07,25,01,33,16.60
2006,07,25,01,34,16.60
2006,07,25,01,35,16.50
2006,07,25,01,36,16.40
2006,07,25,01,37,16.40
2006,07,25,01,38,16.40
2006,07,25,01,39,16.40
2006,07,25,01,40,16.40
2006,07,25,01,41,16.40
2006,07,25,01,42,16.40
2006,07,25,01,43,16.40
2006,07,25,01,44,16.40
2006,07,25,01,45,16.40
2006,07,25,01,46,16.40
2006,07,25,01,47,16.40
2006,07,25,01,48,16.40
2006,07,25,01,49,16.30
2006,07,25,01,50,16.30
2006,07,25,01,51,16.30
2006,07,25,01,52,16.20
2006,07,25,01,53,16.10
2006,07,25,01,54,16.10
2006,07,25,01,55,16.10
2006,07,25,01,56,16.10
2006,07,25,01,57,16.00
2006,07,25,01,58,15.90
2006,07,25,01,59,15.90
2006,07,25,02,00,15.90
2006,07,25,02,01,15.80
2006,07,25,02,02,15.80
2006,07,25,02,03,15.80
2006,07,25,02,04,15.80
2006,07,25,02,05,15.80
2006,07,25,02,06,15.70
2006,07,25,02,07,15.70
2006,07,25,02,08,15.60
2006,07,25,02,09,15.60
2006,07,25,02,10,15.60
2006,07,25,02,11,15.60
2006,07,25,02,12,15.50
2006,07,25,02,13,15.50
2006,07,25,02,14,15.50
2006,07,25,02,15,15.50
2006,07,25,02,16,15.50
2006,07,25,02,17,15.40
2006,07,25,02,18,15.40
2006,07,25,02,19,15.40
2006,07,25,02,20,15.40
2006,07,25,02,21,15.30
2006,07,25,02,22,15.30
2006,07,25,02,23,15.30
2006,07,25,02,24,15.30
2006,07,25,02,25,15.30
2006,07,25,02,26,15.30
2006,07,25,02,27,15.30
2006,07,25,02,28,15.30
2006,07,25,02,29,15.30
2006,07,25,02,30,15.30
2006,07,25,02,31,15.30
2006,07,25,02,32,15.30
2006,07,25,02,33,15.30
2006,07,25,02,34,15.30
2006,07,25,02,35,15.30
2006,07,25,02,36,15.30
2006,07,25,02,37,15.30
2006,07,25,02,38,15.30
2006,07,25,02,39,15.30
2006,07,25,02,40,15.30
2006,07,25,02,41,15.30
2006,07,25,02,42,15.30
2006,07,25,02,43,15.30
2006,07,25,02,44,15.40
2006,07,25,02,45,15.40
2006,07,25,02,46,15.40
2006,07,25,02,47,15.40
2006,07,25,02,48,15.40
2006,07,25,02,49,15.30
2006,07,25,02,50,15.30
2006,07,25,02,51,15.30
2006,07,25,02,52,15.30
2006,07,25,02,53,15.30
2006,07,25,02,54,15.30
2006,07,25,02,55,15.30
2006,07,25,02,56,15.30
2006,07,25,02,57,15.30
2006,07,25,02,58,15.30
2006,07,25,02,59,15.30
2006,07,25,03,00,15.30
2006,07,25,03,01,15.30
2006,07,25,03,02,15.30
2006,07,25,03,03,15.30
2006,07,25,03,04,15.30
2006,07,25,03,05,15.30
2006,07,25,03,06,15.30
2006,07,25,03,07,15.30
2006,07,25,03,08,15.20
2006,07,25,03,09,15.20
2006,07,25,03,10,15.20
2006,07,25,03,11,15.10
2006,07,25,03,12,15.10
2006,07,25,03,13,15.00
2006,07,25,03,14,15.00
2006,07,25,03,15,15.00
2006,07,25,03,16,15.00
2006,07,25,03,17,15.00
2006,07,25,03,18,14.90
2006,07,25,03,19,14.90
2006,07,25,03,20,14.90
2006,07,25,03,21,14.90
2006,07,25,03,22,14.90
2006,07,25,03,23,14.90
2006,07,25,03,24,14.90
2006,07,25,03,25,14.90
2006,07,25,03,26,14.90
2006,07,25,03,27,14.90
2006,07,25,03,28,14.90
2006,07,25,03,29,14.90
2006,07,25,03,30,14.90
2006,07,25,03,31,14.90
2006,07,25,03,32,14.90
2006,07,25,03,33,14.80
2006,07,25,03,34,14.80
2006,07,25,03,35,14.80
2006,07,25,03,36,14.80
2006,07,25,03,37,14.80
2006,07,25,03,38,14.80
2006,07,25,03,39,14.80
2006,07,25,03,40,14.80
2006,07,25,03,41,14.70
2006,07,25,03,42,14.70
2006,07,25,03,43,14.60
2006,07,25,03,44,14.60
2006,07,25,03,45,14.60
2006,07,25,03,46,14.50
2006,07,25,03,47,14.50
2006,07,25,03,48,14.50
2006,07,25,03,49,14.50
2006,07,25,03,50,14.40
2006,07,25,03,51,14.40
2006,07,25,03,52,14.40
2006,07,25,03,53,14.40
2006,07,25,03,54,14.40
2006,07,25,03,55,14.30
2006,07,25,03,56,14.30
2006,07,25,03,57,14.30
2006,07,25,03,58,14.30
2006,07,25,03,59,14.30
2006,07,25,04,00,14.30
2006,07,25,04,01,14.20
2006,07,25,04,02,14.20
2006,07,25,04,03,14.20
2006,07,25,04,04,14.20
2006,07,25,04,05,14.20
2006,07,25,04,06,14.20
2006,07,25,04,07,14.10
2006,07,25,04,08,14.10
2006,07,25,04,09,14.10
2006,07,25,04,10,14.10
2006,07,25,04,11,14.10
2006,07,25,04,12,14.10
2006,07,25,04,13,14.00
2006,07,25,04,14,14.00
2006,07,25,04,15,14.00
2006,07,25,04,16,14.00
2006,07,25,04,17,14.00
2006,07,25,04,18,14.00
2006,07,25,04,19,14.00
2006,07,25,04,20,14.00
2006,07,25,04,21,14.00
2006,07,25,04,22,14.00
2006,07,25,04,23,14.00
2006,07,25,04,24,13.90
2006,07,25,04,25,13.90
2006,07,25,04,26,13.90
2006,07,25,04,27,13.90
2006,07,25,04,28,13.90
2006,07,25,04,29,13.90
2006,07,25,04,30,14.00
2006,07,25,04,31,14.00
2006,07,25,04,32,14.00
2006,07,25,04,33,14.00
2006,07,25,04,34,14.00
2006,07,25,04,35,14.00
2006,07,25,04,36,14.00
2006,07,25,04,37,14.00
2006,07,25,04,38,14.00
2006,07,25,04,39,14.00
2006,07,25,04,40,14.00
2006,07,25,04,41,14.00
2006,07,25,04,42,14.00
2006,07,25,04,43,14.00
2006,07,25,04,44,14.00
2006,07,25,04,45,14.00
2006,07,25,04,46,14.00
2006,07,25,04,47,14.00
2006,07,25,04,48,13.90
2006,07,25,04,49,13.90
2006,07,25,04,50,13.90
2006,07,25,04,51,13.90
2006,07,25,04,52,13.90
2006,07,25,04,53,13.80
2006,07,25,04,54,13.80
2006,07,25,04,55,13.80
2006,07,25,04,56,13.70
2006,07,25,04,57,13.70
2006,07,25,04,58,13.70
2006,07,25,04,59,13.70
2006,07,25,05,00,13.70
2006,07,25,05,01,13.70
2006,07,25,05,02,13.70
2006,07,25,05,03,13.70
2006,07,25,05,04,13.70
2006,07,25,05,05,13.70
2006,07,25,05,06,13.70
2006,07,25,05,07,13.60
2006,07,25,05,08,13.60
2006,07,25,05,09,13.60
2006,07,25,05,10,13.60
2006,07,25,05,11,13.60
2006,07,25,05,12,13.60
2006,07,25,05,13,13.60
2006,07,25,05,14,13.60
2006,07,25,05,15,13.60
2006,07,25,05,16,13.60
2006,07,25,05,17,13.60
2006,07,25,05,18,13.60
2006,07,25,05,19,13.50
2006,07,25,05,20,13.50
2006,07,25,05,21,13.50
2006,07,25,05,22,13.50
2006,07,25,05,23,13.40
2006,07,25,05,24,13.40
2006,07,25,05,25,13.40
2006,07,25,05,26,13.40
2006,07,25,05,27,13.40
2006,07,25,05,28,13.40
2006,07,25,05,29,13.30
2006,07,25,05,30,13.30
2006,07,25,05,31,13.30
2006,07,25,05,32,13.30
2006,07,25,05,33,13.30
2006,07,25,05,34,13.30
2006,07,25,05,35,13.30
2006,07,25,05,36,13.30
2006,07,25,05,37,13.30
2006,07,25,05,38,13.30
2006,07,25,05,39,13.30
2006,07,25,05,40,13.30
2006,07,25,05,41,13.30
2006,07,25,05,42,13.30
2006,07,25,05,43,13.30
2006,07,25,05,44,13.30
2006,07,25,05,45,13.30
2006,07,25,05,46,13.30
2006,07,25,05,47,13.30
2006,07,25,05,48,13.30
2006,07,25,05,49,13.20
2006,07,25,05,50,13.20
2006,07,25,05,51,13.20
2006,07,25,05,52,13.20
2006,07,25,05,53,13.20
2006,07,25,05,54,13.20
2006,07,25,05,55,13.10
2006,07,25,05,56,13.10
2006,07,25,05,57,13.10
2006,07,25,05,58,13.10
2006,07,25,05,59,13.10
2006,07,25,06,00,13.10
2006,07,25,06,01,13.10
2006,07,25,06,02,13.10
2006,07,25,06,03,13.10
2006,07,25,06,04,13.10
2006,07,25,06,05,13.10
2006,07,25,06,06,13.10
2006,07,25,06,07,13.10
2006,07,25,06,08,13.10
2006,07,25,06,09,13.20
2006,07,25,06,10,13.20
2006,07,25,06,11,13.20
2006,07,25,06,12,13.20
2006,07,25,06,13,13.20
2006,07,25,06,14,13.20
2006,07,25,06,15,13.20
2006,07,25,06,16,13.20
2006,07,25,06,17,13.20
2006,07,25,06,18,13.30
2006,07,25,06,19,13.30
2006,07,25,06,20,13.30
2006,07,25,06,21,13.30
2006,07,25,06,22,13.40
2006,07,25,06,23,13.40
2006,07,25,06,24,13.40
2006,07,25,06,25,13.50
2006,07,25,06,26,13.50
2006,07,25,06,27,13.50
2006,07,25,06,28,13.50
2006,07,25,06,29,13.50
2006,07,25,06,30,13.50
2006,07,25,06,31,13.50
2006,07,25,06,32,13.60
2006,07,25,06,33,13.60
2006,07,25,06,34,13.60
2006,07,25,06,35,13.60
2006,07,25,06,36,13.60
2006,07,25,06,37,13.60
2006,07,25,06,38,13.60
2006,07,25,06,39,13.60
2006,07,25,06,40,13.60
2006,07,25,06,41,13.60
2006,07,25,06,42,13.70
2006,07,25,06,43,13.70
2006,07,25,06,44,13.70
2006,07,25,06,45,13.70
2006,07,25,06,46,13.70
2006,07,25,06,47,13.80
2006,07,25,06,48,13.90
2006,07,25,06,49,14.00
2006,07,25,06,50,14.10
2006,07,25,06,51,14.20
2006,07,25,06,52,14.40
2006,07,25,06,53,14.50
2006,07,25,06,54,14.60
2006,07,25,06,55,14.60
2006,07,25,06,56,14.70
2006,07,25,06,57,14.70
2006,07,25,06,58,14.80
2006,07,25,06,59,14.80
2006,07,25,07,00,14.90
2006,07,25,07,01,15.00
2006,07,25,07,02,15.00
2006,07,25,07,03,15.10
2006,07,25,07,04,15.10
2006,07,25,07,05,15.20
2006,07,25,07,06,15.30
2006,07,25,07,07,15.30
2006,07,25,07,08,15.40
2006,07,25,07,09,15.40
2006,07,25,07,10,15.50
2006,07,25,07,11,15.50
2006,07,25,07,12,15.50
2006,07,25,07,13,15.50
2006,07,25,07,14,15.60
2006,07,25,07,15,15.60
2006,07,25,07,16,15.60
2006,07,25,07,17,15.70
2006,07,25,07,18,15.70
2006,07,25,07,19,15.70
2006,07,25,07,20,15.80
2006,07,25,07,21,15.80
2006,07,25,07,22,15.80
2006,07,25,07,23,15.80
2006,07,25,07,24,15.90
2006,07,25,07,25,16.00
2006,07,25,07,26,16.10
2006,07,25,07,27,16.10
2006,07,25,07,28,16.20
2006,07,25,07,29,16.30
2006,07,25,07,30,16.40
2006,07,25,07,31,16.40
2006,07,25,07,32,16.70
2006,07,25,07,33,16.80
2006,07,25,07,34,16.80
2006,07,25,07,35,16.80
2006,07,25,07,36,16.80
2006,07,25,07,37,16.80
2006,07,25,07,38,16.80
2006,07,25,07,39,16.80
2006,07,25,07,40,16.80
2006,07,25,07,41,16.80
2006,07,25,07,42,16.80
2006,07,25,07,43,16.90
2006,07,25,07,44,16.90
2006,07,25,07,45,16.90
2006,07,25,07,46,17.00
2006,07,25,07,47,17.00
2006,07,25,07,48,17.10
2006,07,25,07,49,17.20
2006,07,25,07,50,17.20
2006,07,25,07,51,17.30
2006,07,25,07,52,17.30
2006,07,25,07,53,17.30
2006,07,25,07,54,17.30
2006,07,25,07,55,17.40
2006,07,25,07,56,17.50
2006,07,25,07,57,17.50
2006,07,25,07,58,17.60
2006,07,25,07,59,17.60
2006,07,25,08,00,17.70
2006,07,25,08,01,17.70
2006,07,25,08,02,17.70
2006,07,25,08,03,17.70
2006,07,25,08,04,17.80
2006,07,25,08,05,17.80
2006,07,25,08,06,17.80
2006,07,25,08,07,17.90
2006,07,25,08,08,17.90
2006,07,25,08,09,17.90
2006,07,25,08,10,17.90
2006,07,25,08,11,18.00
2006,07,25,08,12,18.10
2006,07,25,08,13,18.20
2006,07,25,08,14,18.20
2006,07,25,08,15,18.20
2006,07,25,08,16,18.40
2006,07,25,08,17,18.50
2006,07,25,08,18,18.60
2006,07,25,08,19,18.70
2006,07,25,08,20,18.80
2006,07,25,08,21,18.90
2006,07,25,08,22,18.90
2006,07,25,08,23,18.90
2006,07,25,08,24,18.90
2006,07,25,08,25,18.90
2006,07,25,08,26,18.90
2006,07,25,08,27,19.10
2006,07,25,08,28,19.20
2006,07,25,08,29,19.40
2006,07,25,08,30,19.50
2006,07,25,08,31,19.60
2006,07,25,08,32,19.60
2006,07,25,08,33,19.60
2006,07,25,08,34,19.50
2006,07,25,08,35,19.50
2006,07,25,08,36,19.50
2006,07,25,08,37,19.60
2006,07,25,08,38,19.60
2006,07,25,08,39,19.50
2006,07,25,08,40,19.40
2006,07,25,08,41,19.40
2006,07,25,08,42,19.40
2006,07,25,08,43,19.40
2006,07,25,08,44,19.40
2006,07,25,08,45,19.50
2006,07,25,08,46,19.50
2006,07,25,08,47,19.50
2006,07,25,08,48,19.50
2006,07,25,08,49,19.50
2006,07,25,08,50,19.50
2006,07,25,08,51,19.50
2006,07,25,08,52,19.70
2006,07,25,08,53,19.70
2006,07,25,08,54,19.90
2006,07,25,08,55,19.90
2006,07,25,08,56,19.90
2006,07,25,08,57,19.90
2006,07,25,08,58,20.00
2006,07,25,08,59,20.10
2006,07,25,09,00,20.20
2006,07,25,09,01,20.30
2006,07,25,09,02,20.40
2006,07,25,09,03,20.50
2006,07,25,09,04,20.50
2006,07,25,09,05,20.50
2006,07,25,09,06,20.50
2006,07,25,09,07,20.50
2006,07,25,09,08,20.60
2006,07,25,09,09,20.60
2006,07,25,09,10,20.60
2006,07,25,09,11,20.70
2006,07,25,09,12,20.70
2006,07,25,09,13,20.70
2006,07,25,09,14,20.70
2006,07,25,09,15,20.70
2006,07,25,09,16,20.70
2006,07,25,09,17,20.80
2006,07,25,09,18,20.80
2006,07,25,09,19,20.80
2006,07,25,09,20,20.80
2006,07,25,09,21,20.80
2006,07,25,09,22,20.80
2006,07,25,09,23,20.80
2006,07,25,09,24,20.70
2006,07,25,09,25,20.70
2006,07,25,09,26,20.60
2006,07,25,09,27,20.60
2006,07,25,09,28,20.60
2006,07,25,09,29,20.60
2006,07,25,09,30,20.70
2006,07,25,09,31,20.80
2006,07,25,09,32,20.90
2006,07,25,09,33,21.00
2006,07,25,09,34,21.00
2006,07,25,09,35,21.10
2006,07,25,09,36,21.10
2006,07,25,09,37,21.10
2006,07,25,09,38,21.00
2006,07,25,09,39,21.10
2006,07,25,09,40,21.10
2006,07,25,09,41,21.10
2006,07,25,09,42,21.00
2006,07,25,09,43,21.00
2006,07,25,09,44,21.10
2006,07,25,09,45,21.10
2006,07,25,09,46,21.20
2006,07,25,09,47,21.30
2006,07,25,09,48,21.30
2006,07,25,09,49,21.30
2006,07,25,09,50,21.30
2006,07,25,09,51,21.30
2006,07,25,09,52,21.30
2006,07,25,09,53,21.30
2006,07,25,09,54,21.30
2006,07,25,09,55,21.30
2006,07,25,09,56,21.30
2006,07,25,09,57,21.30
2006,07,25,09,58,21.30
2006,07,25,09,59,21.30
2006,07,25,10,00,21.30
2006,07,25,10,01,21.30
2006,07,25,10,02,21.30
2006,07,25,10,03,21.30
2006,07,25,10,04,21.40
2006,07,25,10,05,21.50
2006,07,25,10,06,21.60
2006,07,25,10,07,21.60
2006,07,25,10,08,21.60
2006,07,25,10,09,21.60
2006,07,25,10,10,21.40
2006,07,25,10,11,21.30
2006,07,25,10,12,21.30
2006,07,25,10,13,21.30
2006,07,25,10,14,21.40
2006,07,25,10,15,21.60
2006,07,25,10,16,21.60
2006,07,25,10,17,21.70
2006,07,25,10,18,21.80
2006,07,25,10,19,21.90
2006,07,25,10,20,22.00
2006,07,25,10,21,22.10
2006,07,25,10,22,22.20
2006,07,25,10,23,22.30
2006,07,25,10,24,22.30
2006,07,25,10,25,22.40
2006,07,25,10,26,22.40
2006,07,25,10,27,22.40
2006,07,25,10,28,22.50
2006,07,25,10,29,22.50
2006,07,25,10,30,22.60
2006,07,25,10,31,22.70
2006,07,25,10,32,22.90
2006,07,25,10,33,23.00
2006,07,25,10,34,23.10
2006,07,25,10,35,22.90
2006,07,25,10,36,22.80
2006,07,25,10,37,22.70
2006,07,25,10,38,22.60
2006,07,25,10,39,22.60
2006,07,25,10,40,22.50
2006,07,25,10,41,22.50
2006,07,25,10,42,22.50
2006,07,25,10,43,22.60
2006,07,25,10,44,22.60
2006,07,25,10,45,22.70
2006,07,25,10,46,22.70
2006,07,25,10,47,22.80
2006,07,25,10,48,22.80
2006,07,25,10,49,22.80
2006,07,25,10,50,22.80
2006,07,25,10,51,22.70
2006,07,25,10,52,22.60
2006,07,25,10,53,22.50
2006,07,25,10,54,22.50
2006,07,25,10,55,22.50
2006,07,25,10,56,22.50
2006,07,25,10,57,22.60
2006,07,25,10,58,22.70
2006,07,25,10,59,22.80
2006,07,25,11,00,22.90
2006,07,25,11,01,22.80
2006,07,25,11,02,22.60
2006,07,25,11,03,22.40
2006,07,25,11,04,22.30
2006,07,25,11,05,22.20
2006,07,25,11,06,22.10
2006,07,25,11,07,22.10
2006,07,25,11,08,22.00
2006,07,25,11,09,21.90
2006,07,25,11,10,22.00
2006,07,25,11,11,21.90
2006,07,25,11,12,21.90
2006,07,25,11,13,21.70
2006,07,25,11,14,21.60
2006,07,25,11,15,21.60
2006,07,25,11,16,21.60
2006,07,25,11,17,21.70
2006,07,25,11,18,21.70
2006,07,25,11,19,21.70
2006,07,25,11,20,21.80
2006,07,25,11,21,21.80
2006,07,25,11,22,21.70
2006,07,25,11,23,21.60
2006,07,25,11,24,21.60
2006,07,25,11,25,21.60
2006,07,25,11,26,21.50
2006,07,25,11,27,21.40
2006,07,25,11,28,21.40
2006,07,25,11,29,21.40
2006,07,25,11,30,21.40
2006,07,25,11,31,21.40
2006,07,25,11,32,21.30
2006,07,25,11,33,21.30
2006,07,25,11,34,21.30
2006,07,25,11,35,21.30
2006,07,25,11,36,21.30
2006,07,25,11,37,21.30
2006,07,25,11,38,21.30
2006,07,25,11,39,21.30
2006,07,25,11,40,21.30
2006,07,25,11,41,21.30
2006,07,25,11,42,21.30
2006,07,25,11,43,21.30
2006,07,25,11,44,21.40
2006,07,25,11,45,21.40
2006,07,25,11,46,21.60
2006,07,25,11,47,21.60
2006,07,25,11,48,21.60
2006,07,25,11,49,21.50
2006,07,25,11,50,21.40
2006,07,25,11,51,21.30
2006,07,25,11,52,21.30
2006,07,25,11,53,21.30
2006,07,25,11,54,21.30
2006,07,25,11,55,21.30
2006,07,25,11,56,21.40
2006,07,25,11,57,21.40
2006,07,25,11,58,21.60
2006,07,25,11,59,21.60
2006,07,25,12,00,21.60
2006,07,25,12,01,21.80
2006,07,25,12,02,21.90
2006,07,25,12,03,22.00
2006,07,25,12,04,22.00
2006,07,25,12,05,22.10
2006,07,25,12,06,22.20
2006,07,25,12,07,22.30
2006,07,25,12,08,22.40
2006,07,25,12,09,22.50
2006,07,25,12,10,22.50
2006,07,25,12,11,22.50
2006,07,25,12,12,22.60
2006,07,25,12,13,22.70
2006,07,25,12,14,22.70
2006,07,25,12,15,22.70
2006,07,25,12,16,22.60
2006,07,25,12,17,22.50
2006,07,25,12,18,22.50
2006,07,25,12,19,22.50
2006,07,25,12,20,22.50
2006,07,25,12,21,22.40
2006,07,25,12,22,22.40
2006,07,25,12,23,22.40
2006,07,25,12,24,22.40
2006,07,25,12,25,22.50
2006,07,25,12,26,22.50
2006,07,25,12,27,22.60
2006,07,25,12,28,22.60
2006,07,25,12,29,22.60
2006,07,25,12,30,22.60
2006,07,25,12,31,22.70
2006,07,25,12,32,22.70
2006,07,25,12,33,22.60
2006,07,25,12,34,22.60
2006,07,25,12,35,22.50
2006,07,25,12,36,22.60
2006,07,25,12,37,22.60
2006,07,25,12,38,22.60
2006,07,25,12,39,22.70
2006,07,25,12,40,22.60
2006,07,25,12,41,22.60
2006,07,25,12,42,22.60
2006,07,25,12,43,22.60
2006,07,25,12,44,22.60
2006,07,25,12,45,22.50
2006,07,25,12,46,22.40
2006,07,25,12,47,22.40
2006,07,25,12,48,22.40
2006,07,25,12,49,22.50
2006,07,25,12,50,22.60
2006,07,25,12,51,22.70
2006,07,25,12,52,22.70
2006,07,25,12,53,22.80
2006,07,25,12,54,22.80
2006,07,25,12,55,22.80
2006,07,25,12,56,22.90
2006,07,25,12,57,22.80
2006,07,25,12,58,22.70
2006,07,25,12,59,22.60
2006,07,25,13,00,22.50
2006,07,25,13,01,22.40
2006,07,25,13,02,22.40
2006,07,25,13,03,22.40
2006,07,25,13,04,22.30
2006,07,25,13,05,22.20
2006,07,25,13,06,22.20
2006,07,25,13,07,22.20
2006,07,25,13,08,22.10
2006,07,25,13,09,22.10
2006,07,25,13,10,22.20
2006,07,25,13,11,22.40
2006,07,25,13,12,22.50
2006,07,25,13,13,22.60
2006,07,25,13,14,22.70
2006,07,25,13,15,22.80
2006,07,25,13,16,22.90
2006,07,25,13,17,22.90
2006,07,25,13,18,22.90
2006,07,25,13,19,22.80
2006,07,25,13,20,22.70
2006,07,25,13,21,22.70
2006,07,25,13,22,22.60
2006,07,25,13,23,22.50
2006,07,25,13,24,22.30
2006,07,25,13,25,22.30
2006,07,25,13,26,22.20
2006,07,25,13,27,22.20
2006,07,25,13,28,22.10
2006,07,25,13,29,22.10
2006,07,25,13,30,22.10
2006,07,25,13,31,22.10
2006,07,25,13,32,22.20
2006,07,25,13,33,22.20
2006,07,25,13,34,22.40
2006,07,25,13,35,22.50
2006,07,25,13,36,22.60
2006,07,25,13,37,22.70
2006,07,25,13,38,22.80
2006,07,25,13,39,22.90
2006,07,25,13,40,22.90
2006,07,25,13,41,22.90
2006,07,25,13,42,23.10
2006,07,25,13,43,23.10
2006,07,25,13,44,23.20
2006,07,25,13,45,23.20
2006,07,25,13,46,23.30
2006,07,25,13,47,23.30
2006,07,25,13,48,23.30
2006,07,25,13,49,23.30
2006,07,25,13,50,23.30
2006,07,25,13,51,23.30
2006,07,25,13,52,23.30
2006,07,25,13,53,23.40
2006,07,25,13,54,23.40
2006,07,25,13,55,23.40
2006,07,25,13,56,23.60
2006,07,25,13,57,23.60
2006,07,25,13,58,23.70
2006,07,25,13,59,23.70
2006,07,25,14,00,23.70
2006,07,25,14,01,23.70
2006,07,25,14,02,23.70
2006,07,25,14,03,23.70
2006,07,25,14,04,23.80
2006,07,25,14,05,23.80
2006,07,25,14,06,23.80
2006,07,25,14,07,23.80
2006,07,25,14,08,23.80
2006,07,25,14,09,23.80
2006,07,25,14,10,24.00
2006,07,25,14,11,24.10
2006,07,25,14,12,24.10
2006,07,25,14,13,24.30
2006,07,25,14,14,24.40
2006,07,25,14,15,24.40
2006,07,25,14,16,24.40
2006,07,25,14,17,24.50
2006,07,25,14,18,24.60
2006,07,25,14,19,24.80
2006,07,25,14,20,24.90
2006,07,25,14,21,25.10
2006,07,25,14,22,25.10
2006,07,25,14,23,25.10
2006,07,25,14,24,25.10
2006,07,25,14,25,25.20
2006,07,25,14,26,25.20
2006,07,25,14,27,25.30
2006,07,25,14,28,25.40
2006,07,25,14,29,25.50
2006,07,25,14,30,25.50
2006,07,25,14,31,25.60
2006,07,25,14,32,25.70
2006,07,25,14,33,25.80
2006,07,25,14,34,25.80
2006,07,25,14,35,25.60
2006,07,25,14,36,25.50
2006,07,25,14,37,25.50
2006,07,25,14,38,25.70
2006,07,25,14,39,25.80
2006,07,25,14,40,26.00
2006,07,25,14,41,26.00
2006,07,25,14,42,25.80
2006,07,25,14,43,25.60
2006,07,25,14,44,25.60
2006,07,25,14,45,25.70
2006,07,25,14,46,25.70
2006,07,25,14,47,25.70
2006,07,25,14,48,25.60
2006,07,25,14,49,25.50
2006,07,25,14,50,25.40
2006,07,25,14,51,25.30
2006,07,25,14,52,25.30
2006,07,25,14,53,25.30
2006,07,25,14,54,25.30
2006,07,25,14,55,25.20
2006,07,25,14,56,25.20
2006,07,25,14,57,25.40
2006,07,25,14,58,25.60
2006,07,25,14,59,25.70
2006,07,25,15,00,25.80
2006,07,25,15,01,25.90
2006,07,25,15,02,25.90
2006,07,25,15,03,25.90
2006,07,25,15,04,25.90
2006,07,25,15,05,25.90
2006,07,25,15,06,25.80
2006,07,25,15,07,25.80
2006,07,25,15,08,25.80
2006,07,25,15,09,25.70
2006,07,25,15,10,25.50
2006,07,25,15,11,25.60
2006,07,25,15,12,25.60
2006,07,25,15,13,25.60
2006,07,25,15,14,25.50
2006,07,25,15,15,25.50
2006,07,25,15,16,25.40
2006,07,25,15,17,25.40
2006,07,25,15,18,25.40
2006,07,25,15,19,25.50
2006,07,25,15,20,25.70
2006,07,25,15,21,25.70
2006,07,25,15,22,25.70
2006,07,25,15,23,25.70
2006,07,25,15,24,25.70
2006,07,25,15,25,25.60
2006,07,25,15,26,25.50
2006,07,25,15,27,25.50
2006,07,25,15,28,25.60
2006,07,25,15,29,25.70
2006,07,25,15,30,25.80
2006,07,25,15,31,26.00
2006,07,25,15,32,26.10
2006,07,25,15,33,26.00
2006,07,25,15,34,26.00
2006,07,25,15,35,26.10
2006,07,25,15,36,26.30
2006,07,25,15,37,26.50
2006,07,25,15,38,26.60
2006,07,25,15,39,26.60
2006,07,25,15,40,26.60
2006,07,25,15,41,26.60
2006,07,25,15,42,26.50
2006,07,25,15,43,26.30
2006,07,25,15,44,26.30
2006,07,25,15,45,26.30
2006,07,25,15,46,26.40
2006,07,25,15,47,26.50
2006,07,25,15,48,26.60
2006,07,25,15,49,26.70
2006,07,25,15,50,26.80
2006,07,25,15,51,26.80
2006,07,25,15,52,26.90
2006,07,25,15,53,26.90
2006,07,25,15,54,26.90
2006,07,25,15,55,26.70
2006,07,25,15,56,26.60
2006,07,25,15,57,26.60
2006,07,25,15,58,26.60
2006,07,25,15,59,26.40
2006,07,25,16,00,26.30
2006,07,25,16,01,26.20
2006,07,25,16,02,26.30
2006,07,25,16,03,26.40
2006,07,25,16,04,26.60
2006,07,25,16,05,26.60
2006,07,25,16,06,26.60
2006,07,25,16,07,26.70
2006,07,25,16,08,26.80
2006,07,25,16,09,26.70
2006,07,25,16,10,26.40
2006,07,25,16,11,26.30
2006,07,25,16,12,26.30
2006,07,25,16,13,26.30
2006,07,25,16,14,26.40
2006,07,25,16,15,26.40
2006,07,25,16,16,26.40
2006,07,25,16,17,26.30
2006,07,25,16,18,26.30
2006,07,25,16,19,26.30
2006,07,25,16,20,26.30
2006,07,25,16,21,26.30
2006,07,25,16,22,26.20
2006,07,25,16,23,26.20
2006,07,25,16,24,26.20
2006,07,25,16,25,26.20
2006,07,25,16,26,26.30
2006,07,25,16,27,26.30
2006,07,25,16,28,26.40
2006,07,25,16,29,26.30
2006,07,25,16,30,26.10
2006,07,25,16,31,26.00
2006,07,25,16,32,26.00
2006,07,25,16,33,26.00
2006,07,25,16,34,26.10
2006,07,25,16,35,26.30
2006,07,25,16,36,26.30
2006,07,25,16,37,26.30
2006,07,25,16,38,26.40
2006,07,25,16,39,26.40
2006,07,25,16,40,26.40
2006,07,25,16,41,26.30
2006,07,25,16,42,26.30
2006,07,25,16,43,26.40
2006,07,25,16,44,26.40
2006,07,25,16,45,26.40
2006,07,25,16,46,26.60
2006,07,25,16,47,26.70
2006,07,25,16,48,26.70
2006,07,25,16,49,26.70
2006,07,25,16,50,26.70
2006,07,25,16,51,26.70
2006,07,25,16,52,26.70
2006,07,25,16,53,26.70
2006,07,25,16,54,26.70
2006,07,25,16,55,26.60
2006,07,25,16,56,26.70
2006,07,25,16,57,26.60
2006,07,25,16,58,26.60
2006,07,25,16,59,26.40
2006,07,25,17,00,26.30
2006,07,25,17,01,26.20
2006,07,25,17,02,26.00
2006,07,25,17,03,25.90
2006,07,25,17,04,25.90
2006,07,25,17,05,25.90
2006,07,25,17,06,25.90
2006,07,25,17,07,25.90
2006,07,25,17,08,25.90
2006,07,25,17,09,26.00
2006,07,25,17,10,26.10
2006,07,25,17,11,26.20
2006,07,25,17,12,26.20
2006,07,25,17,13,26.20
2006,07,25,17,14,26.20
2006,07,25,17,15,26.40
2006,07,25,17,16,26.40
2006,07,25,17,17,26.50
2006,07,25,17,18,26.70
2006,07,25,17,19,26.90